Regional Weather Roundup
Issued by NWS Northern Indiana

Home | Current Version | Previous Version | Text Only | Print | Product List | Glossary Off
Versions: 1 2 3 4 5 6 7 8 9 10 11 12 13 14 15 16 17 18 19 20 21 22 23 24 25 26 27 28 29 30 31 32 33 34 35 36 37 38 39 40 41 42 43 44 45 46 47 48 49 50

000
ASUS43 KIWX 271800
RWRIWX

KIWX WEATHER ROUNDUP
NATIONAL WEATHER SERVICE NORTHERN INDIANA
100 PM EST TUE JAN 27 2015

NOTE: "FAIR" INDICATES FEW OR NO CLOUDS BELOW 12,000 FEET WITH NO
SIGNIFICANT WEATHER AND/OR OBSTRUCTIONS TO VISIBILITY.

* THESE STATIONS ARE NOT UNDER NWS QUALITY CONTROL. THEY ALSO MAY NOT
  REPORT WEATHER SUCH AS PRECIPITATION OR FOG.

INZ001>027-271900-
NORTHERN INDIANA

CITY           SKY/WX    TMP DP  RH WIND       PRES   REMARKS
GARY*          MOSUNNY   32  10  40 NE7       30.17S WCI  26
SOUTH BEND     SUNNY     28   8  43 CALM      30.15R
6HR MIN TEMP:  22; 6HR MAX TEMP:  28;

ELKHART*       SUNNY     27   7  43 CALM      30.15S
GOSHEN         SUNNY     25  12  58 CALM      30.13S
6HR MIN TEMP:  20; 6HR MAX TEMP:  25;

ANGOLA*        SUNNY     23  10  58 E3        30.10S
FORT WAYNE     MOSUNNY   23  13  65 E5        30.12S WCI  17
6HR MIN TEMP:  16; 6HR MAX TEMP:  24;

PERU/GRISSOM   SUNNY     26  11  54 CALM      30.13R
6HR MIN TEMP:  21; 6HR MAX TEMP:  26; 6HR PCP: TRACE;


$$
INZ028>050-271900-
CENTRAL INDIANA

CITY           SKY/WX    TMP DP  RH WIND       PRES   REMARKS
LAFAYETTE      CLOUDY    26  16  65 E3        30.14S
6HR MIN TEMP:  24; 6HR MAX TEMP:  26;

KOKOMO*        SUNNY     27  18  69 NE3       30.13S
6HR MIN TEMP:  19; 6HR MAX TEMP:  27;

MUNCIE*        SUNNY     24  13  62 NE8       30.10F WCI  15
6HR MIN TEMP:  19; 6HR MAX TEMP:  24;

INDIANAPOLIS   PTSUNNY   27  18  69 NE6       30.11S WCI  20
6HR MIN TEMP:  24; 6HR MAX TEMP:  27; 6HR PCP: TRACE;


$$
MIZ043>046-050>051-056>058-064>065-071>073-077>080-271900-
SOUTHWEST LOWER MICHIGAN

CITY           SKY/WX    TMP DP  RH WIND       PRES   REMARKS
BATTLE CREEK     N/A    N/A N/A N/A MISG      30.13R
6HR MIN TEMP:  19; 6HR MAX TEMP:  25;

BENTON HARBOR  SUNNY     26  10  50 VRB3      30.15S
6HR MIN TEMP:  18; 6HR MAX TEMP:  27;

COLDWATER*     SUNNY     23  10  57 N3        30.11S
6HR MIN TEMP:  15; 6HR MAX TEMP:  23;

HILLSDALE*     SUNNY     23  10  56 CALM      30.07S
6HR MIN TEMP:  15; 6HR MAX TEMP:  23;

HOLLAND        SUNNY     26  11  52 E5        30.17S WCI  20
6HR MIN TEMP:  19; 6HR MAX TEMP:  26;

GRAND RAPIDS   MOSUNNY   25  12  58 NE9       30.15S WCI  15
6HR MIN TEMP:  16; 6HR MAX TEMP:  25;

KALAMAZOO      SUNNY     26   8  46 VRB3      30.14R
6HR MIN TEMP:  18; 6HR MAX TEMP:  26;

STURGIS*       SUNNY     21  12  68 E5        30.12S WCI  15
THREE RIVERS*  FAIR      24  12  62 CALM      30.14R
6HR MIN TEMP:  18; 6HR MAX TEMP:  24;


$$
OHZ001>008-015>018-024>025-271900-
NORTHWEST OHIO

CITY           SKY/WX    TMP DP  RH WIND       PRES   REMARKS
DEFIANCE       SUNNY     23  11  60 NE6       30.12F WCI  16
6HR MIN TEMP:  14; 6HR MAX TEMP:  24;

FINDLAY        SUNNY     22  12  65 N8        30.09F WCI  12
6HR MIN TEMP:   7; 6HR MAX TEMP:  22;

TOLEDO EXPRESS SUNNY     23  13  65 NW9       30.11F WCI  13
6HR MIN TEMP:  13; 6HR MAX TEMP:  23;

TOLEDO METCALF MOSUNNY   23  11  60 N5        30.12F WCI  17
6HR MIN TEMP:  11; 6HR MAX TEMP:  23;

LIMA           SUNNY     20  11  68 N9        30.09F WCI   9
6HR MIN TEMP:  11; 6HR MAX TEMP:  20;


$$
AND FOR LAKE MICHIGAN COASTAL AND OPEN LAKE BUOY OBSERVATIONS

STATION/POSITION TEMP    WIND        PRES    VSBY  WAVE
                 AIR SEA DIR/SP/G                  HT/PER
                 (F)     (DEG/KT/KT) (MB)    (MI)  (FT/S)
CALUMET HARBOR    29      50/  8/ 10   N/A
MICHIGAN CITY     26     360/  7/  9   N/A
SAINT JOSEPH      27     330/  4/  6 1021.3F

$$
&&



USA.gov is the U.S. government's official web portal to all federal, state and local government web resources and services.